CSS (TIANHE-1), 48274

Orbit data source: Space-Track

The Chinese Space Station (CSS), known as Tiangong or "Heavenly Palace," is China's independently developed space station that represents a significant step in China’s space exploration capabilities. Launched in phases starting with the Tianhe module in 2021, the station operates in low Earth orbit (LEO). It aims to support a variety of scientific experiments in fields such as space medicine, astronomy, and technology development.

Loading next visibility...
Identifier
48274, 2021-035A
Orbit
LEO
Country
Flag of CNCN / PRC
Related business
Manufacturer
CAST
Mission
Operational Civil Spaceship
Bus & Motor
TIANHE, Unknown motor
Mass
22,500 kg wet, ~20,838 kg dry
Launch date (UTC)
2021-04-29 (5 years ago)
Launch vehicle
CHANG ZHENG 5B
Launch site
Wenchang Satellite Launch Center (WSC)
Object type
Payload
Rocket body
Debris
Shape & HBR
Irr, 38.9 m
Radar Cross Section
2905.500 m², Large (>1 m²)

Expand to show TLE details & history
Last TLE update: 5 hours ago

TLE from 5 hours ago
0 CSS (TIANHE-1)
1 48274U 21035A   26263.92234256  .00013769  00000-0  16837-3 0  9992
2 48274  41.4679 100.7142 0002503 293.6963  66.3613 15.60143111308112
Epoch: 2026-09-20T22:08Z
TLE epoch observation values (Epoch: 2026-09-20T22:08:10.397Z)
Latitude
0.00001°
Longitude
128.86131°
Altitude
386.164 km
Speed
7.681 km/s
True Right ascension
06h 42m 51s
True Declination
0° 00' 00"
Sunlit
Object was in daylight at epoch
Visualization orbit readout
Latitude
Unknown
Longitude
Unknown
Altitude
Unknown
Speed
Unknown
Apparent Right ascension
Unknown
Apparent Declination
Unknown
Sunlit
N/A
Visualization observer readout
Local Sidereal Time
19:46:09
Azimuth
Unknown
Elevation
Unknown
Doppler factor
Unknown
Orbital elements
Apogee altitude
391.17 km
Perigee altitude
387.782 km
Semi-major axis
6,767.613 km
Eccentricity
0.00025
Inclination
41.4679°
RAAN
100.7142°
Arg. of periapsis
293.6963°
True anomaly
66.38758°
Mean anomaly
66.3613°
Eccentric anomaly
66.37444°
Mean motion
3.89843 °/min
Orbital period
92.34 mins
BSTAR
0.00016837
Loading maneuver chart data...
Computing Atmospheric mass density...
Loading historical data...
Loading historical data...
Loading historical data...
Loading historical data...
Loading historical data...
Loading historical data...
Loading historical data...
Other satellites on launch #35 in the year 2021 (2021-04-29 UTC)

Documentation

Showing up to 5 results
|